Regional Weather Roundup
Issued by NWS

Home | Current Version | Previous Version | Text Only | Print | Product List | Glossary Off
Versions: 1 2 3 4 5 6 7 8 9 10 11 12 13 14 15 16 17 18 19 20 21 22 23 24 25 26 27 28 29 30 31 32 33 34 35 36 37 38 39 40 41 42 43 44 45 46 47 48 49 50

100
ASUS43 KMKX 241611
RWRWI

WISCONSIN REGIONAL WEATHER ROUNDUP
NATIONAL WEATHER SERVICE MILWAUKEE/SULLIVAN WI
1100 AM CDT MON JUL 24 2017

NOTE: "FAIR" INDICATES FEW OR NO CLOUDS BELOW 12,000 FEET WITH NO
SIGNIFICANT WEATHER AND/OR OBSTRUCTIONS TO VISIBILITY.

WIZ001-002-006>008-014>016-023>028-241700-
NORTHWEST WISCONSIN

CITY           SKY/WX    TMP DP  RH WIND       PRES   REMARKS
SUPERIOR ARPT  NOT AVBL
ASHLAND        SUNNY     68  59  73 CALM      30.11F
HAYWARD        SUNNY     68  53  58 E8        30.11S
SIREN          SUNNY     67  57  71 S6        30.09S
CUMBERLAND     SUNNY     63  54  72 E7        30.10S
RICE LAKE      PTSUNNY   63  55  76 E5        30.12F
CHETEK         CLOUDY    61  56  84 E5        30.11F
LADYSMITH      CLOUDY    63  55  75 SE3       30.14F
EAU CLAIRE     CLOUDY    62  55  77 E7        30.09F
MENOMONIE      PTSUNNY   65  57  74 NE7       30.10R
NEW RICHMOND   PTSUNNY   67  56  67 CALM      30.09S
OSCEOLA        PTSUNNY   70  58  66 SE3       30.10F
$$

WIZ003>005-009-010-017-018-241700-
NORTH CENTRAL WISCONSIN

CITY           SKY/WX    TMP DP  RH WIND       PRES   REMARKS
MANITOWISH WTR SUNNY     67  51  56 E3        30.12S
ARBOR VITAE    SUNNY     69  53  57 SE3       30.12S
WOODRUFF       SUNNY     69  53  57 SE3       30.12S
RHINELANDER    SUNNY     65  53  65 S6        30.13S
EAGLE RIVER    SUNNY     68  49  52 CALM      30.13S
LAND O LAKES   SUNNY     69  49  49 S3        30.14S
PHILLIPS       SUNNY     66  53  63 SE6       30.11F
TOMAHAWK         N/A     64  53  66 NE5       30.12F
MEDFORD        SUNNY     65  54  68 E7        30.11S
MERRILL        NOT AVBL
$$

WIZ029-030-035-036-043>047-241700-
CENTRAL WISCONSIN

CITY           SKY/WX    TMP DP  RH WIND       PRES   REMARKS
WAUSAU         SUNNY     67  53  61 E8        30.09S
MOSINEE        MOSUNNY   66  55  68 VRB6      30.12R
MARSHFIELD     PTSUNNY   68  55  63 E7        30.10S
STEVENS POINT  MOSUNNY   66  53  62 E10       30.11S
WAUPACA        SUNNY     72  54  54 NE5       30.10R
WAUTOMA        MOSUNNY   67  56  67 NE5       30.09S
WISC RAPIDS    PTSUNNY   69  56  62 SE7       30.11R
CAMP DOUGLAS   CLOUDY    64  57  77 SE7       30.10R
$$

WIZ011>013-019>022-031-037>040-048>050-241700-
NORTHEAST WISCONSIN

CITY           SKY/WX    TMP DP  RH WIND       PRES   REMARKS
ANTIGO         SUNNY     67  52  59 NE6       30.12R
SHAWANO        SUNNY     70  55  59 NE3       30.09F
OCONTO         SUNNY     68  53  59 E9        30.09R
STURGEON BAY     N/A     66  58  75 N12       30.09S
GREEN BAY      MOSUNNY   68  59  73 N12       30.10R
MANITOWOC      MOSUNNY   67  55  65 NE13G20   30.08S
APPLETON       MOSUNNY   66  52  59 NE7       30.08R
CLINTONVILLE   MOSUNNY  N/A N/A N/A NE6       30.09F
OSHKOSH        PTSUNNY   68  57  68 E9        30.08R
$$

WIZ032>034-041-042-053>061-241700-
SOUTHWEST WISCONSIN

CITY           SKY/WX    TMP DP  RH WIND       PRES   REMARKS
LA CROSSE      CLOUDY    67  57  70 SE6       30.09R
SPARTA         CLOUDY    65  56  73 SE5       30.10S
VIROQUA        CLOUDY    64  58  82 CALM      30.10R
BOSCOBEL       CLOUDY    70  58  65 NE5       30.08R
PRAIRIE DU CHI CLOUDY    67  56  67 NE3       30.07S
PLATTEVILLE    CLOUDY    68  61  77 E7        30.08S
$$

WIZ056-057-062-063-064-067-068-241700-
SOUTH CENTRAL WISCONSIN

CITY           SKY/WX    TMP DP  RH WIND       PRES   REMARKS
REEDSBURG      CLOUDY    65  58  80 E6        30.09R
BARABOO/DELLS  CLOUDY    66  54  66 E5        30.09S
LONE ROCK      CLOUDY    67  57  70 E7        30.08R
MINERAL POINT  CLOUDY    68  59  73 NE6       30.09R
MADISON        PTSUNNY   66  57  72 NE8       30.08R
MIDDLETON      CLOUDY    68  57  68 E8        30.09R
WATERTOWN      PTSUNNY   71  60  68 E10G16    30.07R
MONROE         CLOUDY    68  55  64 NE6       30.07S
JANESVILLE     CLOUDY    70  57  64 NE9       30.06R
$$

WIZ051-052-058>065-066-070>072-241700-
SOUTHEAST WISCONSIN

CITY           SKY/WX    TMP DP  RH WIND       PRES   REMARKS
MILWAUKEE      PTSUNNY   69  59  70 N15G24    30.06R
WAUKESHA       MOSUNNY   66  54  63 E12G18    30.07R
MILWAUKEE/TIMM PTSUNNY   66  52  59 NE16G22   30.07R
RACINE         PTSUNNY   70  60  70 NE16      30.07R
KENOSHA        MOSUNNY   71  58  63 NE15G23   30.06R
FOND DU LAC    PTSUNNY   69  55  60 NE7       30.08R
SHEBOYGAN      PTSUNNY   67  59  75 NE14      30.07S
WEST BEND      PTSUNNY   68  57  68 NE10G18   30.08R
JUNEAU         MOSUNNY   69  57  66 NE8       30.08S
$$

LSZ147-162-241700-
LAKE SUPERIOR

STATION/POSITION TIME  TEMP    WIND        PRES    WAVE
                       AIR SEA DIR/SP/G            HT/PER
                 (UTC) (F)     (DEG/KT/KT) (MB)    (FT/S)
W MID LAKE BUOY  1550   49 49  240/  4/  6 1020.1R   0
DEVILS ISLAND    1600   57      20/  2/  2 1020.0R
PORT WING        1420   56     340/  2/  4   N/A
SAXON HARBOR     1540   59      10/  3/  5 1019.3S
$$

LMZ867-665-643>646-241700-
LAKE MICHIGAN

STATION/POSITION TIME  TEMP    WIND        PRES    WAVE
                       AIR SEA DIR/SP/G            HT/PER
                 (UTC) (F)     (DEG/KT/KT) (MB)    (FT/S)
CHAMBERS ISLAND  1540   65      20/ 10/ 12 1018.3S
S GREEN BAY BUOY 1600   65 72   50/ 12/ 16 1018.6
N MID LAKE BUOY  1550   63 66   20/ 16/ 19 1018.6R   3/ 4
NORTHPORT PIER   1540   65     340/ 10/ 12 1018.6S
KEWAUNEE LAKESHO 1548   66      40/  9/ 12 1017.8R
SHEBOYGAN LAKESH 1600   64      20/ 16/ 18 1018.1R
PORT WASHINGTON  1540   68      40/ 13/ 18 1019.0R
ATWATER BUOY     1509   66 68   30/ 17/ 21 1017.6R
MILWAUKEE LAKESH 1550   65      30/ 18/ 20   N/A
S MID LAKE BUOY  1550   66 70   20/ 14/ 17 1016.7R   4/ 7
KENOSHA   LAKESH 1600   66      30/ 17/ 20 1017.3
$$

TC  - TEMPERATURE IN CELSIUS
VSB - VISIBILITY IN STATUTE MILES
WCI - WIND CHILL INDEX
HX  - HEAT INDEX





USA.gov is the U.S. government's official web portal to all federal, state and local government web resources and services.